User: anonymous   Login
Location: Peebles
(55.6412°N, 3.1714°W)
Time: 21:55:39
(UTC+01:00)
Language:

FENGYUN 1C DEB - Orbit

View from above orbital plane
View from above orbital plane
View from above satellite
View from above satellite

Ground track
Ground track

The orbit data is extracted from the following two-line orbital elements,

1 30879U 99025AXR 23086.76753592  .00011480  00000-0  31837-2 0  9993
2 30879  99.3348 204.4564 0380327 280.9792  74.8824 14.11735023477097
Epoch (UTC): 27 March 2023 18:25:15
Eccentricity: 0.0380327
inclination: 99.3348°
perigee height: 578 km
apogee height: 1128 km
right ascension of ascending node: 204.4564°
argument of perigee: 280.9792°
revolutions per day: 14.11735023
mean anomaly at epoch: 74.8824°
orbit number at epoch: 47709

The dashed part of the orbit path shows where the satellite is in the earth's shadow,  

DLR